SCP
0 0 0 0 0 0 0 0 0 0 0 0 0 0 0 0 0 0 0 0 0 0 0 0 0 0 0 0 -0 0 0 0 0 0 0 0 0 0 0 0 0 0 0 0 0
0 0 0 0 0 0 0 0 0 0 0 0 0 0 0 0 0 0 0 0 0 0 0 0 0 0 0 0 0 0 0 0 0 0 0 0 0 0 0 0 0 0 0 0 0
0 0 0 0 0 0 0 0 0 0 0 0 0 0 0 0 0 0 0 0 0 0 0 0 0 0 0 0 0 0 0 0 0 0 0 0 0 0 0 0 0 0 0 0 0
0 0 0 0 0 0 0 0 0 0 0 0 0 0 0 0 0 0 0 0 0 0 0 0 0 0 0 0 0 0 0 0 0 0 0 0 0 0 0 0 0 0 0 0 0
0 0 0 0 0 0 0 0 0 0 0 0 0 0 0 0 0 0 0 0 0 0 0 0 0 0 0 0 0 0 0 0 0 0 0 0 0 0 0 0 0 0 0 0 0
0 0 0 0 0 0 0 0 0 0 0 0 0 0 0 0 0 0 0 0 0 0 0 0 0 0 0 0 0 0 0 0 0 0 0 0 0 0 0 0 0 0 0 0 0
0 0 0 0 0 0 0 0 0 0 0 0 0 0 0 0 0 0 0 0 0 0 0 0 0 0 0 0 0 0 0 0 0 0 0 0 0 0 0 0 0 0 0 0 0
0 0 0 0 0 0 0 0 0 0 0 0 0 0 0 0 0 0 0 0 0 0 0 0 0 0 0 0 0 0 0 0 0 0 0 0 0 0 0 0 0 0 0 0 0
0 0 0 0 0 0 0 0 0 0 0 0 0 0 0 0 0 0 0 0 0 0 0 0 0 0 0 0 0 0 0 0 0 0 0 0 0 0 0 0 0 0 0 0 0
0 0 0 0 0 0 0 0 0 0 0 0 0 0 0 0 0 0 0 0 0 0 0 0 0 0 0 0 0 0 0 0 0 0 0 0 0 0 0 0 0 0 0 0 0
0 0 0 0 0 0 0 0 0 0 0 0 0 0 0 0 0 0 0 0 0 0 0 0 0 0 0 0 0 0 0 0 0 0 0 0 0 0 0 0 0 0 0 0 0
-0 0 0 0 0 0 0 0 0 0 0 0 0 0 0 0 0 0 0 0 0 0 0 0 0 0 0 0 0 0 0 0 0 0 0 0 0 0 0 0 0 0 0 0 0
0 0 0 0 0 0 0 0 0 0 0 0 0 0 0 0 0 0 0 0 0 0 0 0 0 0 0 0 0 0 0 0 0 0 0 0 0 0 0 0 0 0 0 0 0
0 -0 0 0 0 0 0 0 0 0 0 0 0 0 0 0 0 0 0 0 0 0 0 0 0 0 0 0 0 0 0 0 0 0 0 0 -0 0 0 0 0 0 0 0 0
0 0 0 0 0 0 0 0 0 0 0 0 0 0 0 0 0 0 0 0 0 0 0 0 0 0 0 0 0 0 0 0 0 0 0 0 0 -0 -0 0 0 0 0 0 0
0 0 0 0 0 0 0 0 0 0 0 0 0 0 0 0 0 0 0 0 0 0 0 0 0 0 0 0 0 0 0 0 0 0 0 0 0 -0 0 0 0 0 0 0 0
0 0 0 0 0 0 0 0 0 0 0 0 0 0 0 0 0 0 0 0 0 0 0 0 0 0 0 0 0 0 0 0 0 0 0 0 0 0 0 0 0 0 0 0 0
0 0 0 0 0 1 1 0 0 0 0 0 0 0 0 0 0 0 0 0 0 0 0 0 0 0 0 0 0 0 0 0 0 0 0 0 0 0 0 0 0 -0 0 -0 0
0 0 0 0 0 1 0 0 0 0 0 0 0 0 0 0 0 0 0 0 0 0 0 0 0 0 0 0 0 0 0 0 0 0 0 0 0 0 0 0 0 0 0 0 0
0 0 0 0 0 0 0 0 0 0 0 0 0 0 0 0 0 0 0 0 0 0 0 0 0 0 0 0 0 0 0 0 0 0 0 0 0 0 0 0 0 0 0 0 0
0 0 0 0 0 0 0 0 0 0 0 0 0 0 0 0 0 0 0 0 0 0 0 0 0 0 0 0 0 0 0 0 0 0 0 0 0 0 0 0 0 0 0 0 0
0 0 0 0 0 0 0 0 0 0 0 0 0 0 0 0 0 0 0 0 0 0 0 0 0 0 0 0 0 0 0 0 0 0 0 0 0 0 0 0 0 0 0 0 -0
0 0 0 0 0 0 0 0 0 0 0 0 0 0 0 0 0 0 0 0 0 0 0 0 0 0 0 0 0 0 0 0 0 0 0 0 0 0 0 0 0 0 -0 -0 -0
0 0 0 0 0 0 0 0 0 0 0 0 0 0 0 0 0 0 0 0 0 0 0 0 0 0 0 0 0 0 0 0 0 0 0 0 0 -0 -0 0 -0 -0 0 0 -0
0 0 0 0 0 0 0 0 0 0 0 0 0 0 0 0 0 0 0 0 0 0 0 0 0 0 0 0 0 0 0 0 0 0 0 0 0 0 0 0 0 0 -0 -0 -0
0 0 0 0 0 0 0 0 0 0 0 0 0 0 0 0 0 0 0 0 0 0 0 0 0 0 0 0 0 0 0 0 0 0 0 0 0 0 0 0 0 -0 -0 -0 -0
0 0 0 0 0 0 0 0 0 0 0 0 0 0 0 0 0 0 0 0 0 0 0 0 0 0 0 0 0 0 0 0 0 0 0 0 0 0 0 0 -0 0 0 -0 -0
Wind_Speed_500mb
71 67 62 54 49 49 54 48 42 44 58 60 57 52 47 44 40 39 39 32 34 45 29 17 17 6 10 6 5 10 7 10 16 15 14 14 2 10 5 4 7 7 2 12 23
73 72 69 63 55 51 55 53 43 42 41 46 54 51 46 41 40 43 35 38 44 35 32 12 9 9 11 7 4 6 7 15 16 23 22 17 12 12 5 16 20 20 20 17 24
70 73 74 71 65 58 53 55 49 44 40 35 41 49 42 32 28 49 52 50 47 36 31 15 15 14 19 25 12 8 8 26 30 21 30 16 12 13 13 16 23 6 34 26 27
84 71 72 74 71 64 59 58 54 48 42 38 33 38 39 27 17 13 27 39 50 37 34 22 17 24 12 15 26 21 27 26 44 18 8 11 20 34 21 36 28 7 9 30 30
76 80 71 75 75 70 66 58 58 50 40 40 32 33 39 39 37 8 18 33 45 47 40 30 31 29 24 19 33 27 23 41 27 15 13 18 27 30 38 35 24 21 21 30 35
72 72 75 70 76 74 71 64 60 56 46 45 39 32 36 47 36 13 12 17 41 53 44 38 22 34 22 38 29 21 33 41 50 28 26 21 30 29 25 26 45 45 37 31 41
77 71 73 74 72 77 73 68 62 58 50 48 44 42 39 65 8 48 33 20 20 41 42 41 38 28 19 22 30 42 22 23 33 36 19 17 25 24 54 50 53 38 31 37 42
79 75 71 78 73 76 77 72 65 59 53 49 41 39 41 45 25 42 35 31 15 28 40 33 36 37 28 24 27 14 19 26 20 36 37 17 31 22 41 55 60 62 55 45 45
80 71 71 76 78 70 79 76 67 60 57 51 45 36 37 33 65 44 52 27 20 21 36 38 38 34 22 15 16 27 27 33 28 42 19 28 15 21 43 53 52 58 60 51 48
80 64 71 73 77 77 76 80 68 57 57 53 45 28 40 53 41 59 30 38 24 23 29 25 23 13 15 24 33 19 33 30 28 21 33 24 25 27 53 55 40 48 47 49 55
89 63 68 68 80 69 75 81 60 35 76 34 43 43 4 53 43 58 50 47 39 25 14 22 12 30 47 40 19 21 23 26 30 28 30 32 28 24 43 49 52 49 43 56 52
64 77 66 73 70 80 71 98 101 30 56 62 33 76 14 50 39 48 59 46 40 28 30 11 28 49 22 24 30 31 30 34 16 20 19 21 24 19 38 39 54 50 56 55 51
62 69 61 71 70 70 90 91 83 32 16 57 50 74 29 48 35 56 77 63 49 32 40 27 24 29 25 22 29 35 38 29 20 11 8 6 24 24 38 52 57 63 63 65 60
63 65 67 69 71 83 81 74 72 63 6 23 26 41 45 27 16 50 80 63 17 43 37 26 39 19 26 28 26 32 24 21 22 10 9 12 19 21 16 31 34 67 69 70 73
79 77 71 84 72 88 76 61 74 48 11 36 27 36 51 37 36 26 74 58 29 27 29 26 24 37 17 49 26 23 11 15 22 24 9 30 14 11 22 32 28 33 67 73 76
73 74 72 85 85 80 60 63 67 7 14 22 36 37 45 49 25 39 64 54 36 17 32 29 13 18 41 15 24 9 7 5 4 11 19 48 26 7 20 25 25 29 43 49 72
67 73 80 67 81 78 80 77 18 15 11 10 34 47 48 29 22 40 39 41 24 23 28 34 22 6 2 26 22 16 19 9 10 13 14 10 16 39 18 17 20 17 32 32 23
65 80 97 85 69 88 94 21 28 19 16 11 32 50 30 45 18 38 38 37 38 24 18 26 26 33 26 21 27 28 31 9 10 9 9 21 14 23 30 60 68 64 66 62 57
48 64 64 105 76 101 64 28 22 25 17 27 45 49 14 41 20 29 41 49 43 41 15 28 22 21 20 17 27 19 26 24 10 4 1 8 12 16 18 18 17 32 41 38 32
51 47 51 80 101 69 30 29 8 28 20 37 21 25 27 47 29 35 40 40 39 41 25 6 10 12 35 24 23 14 16 12 9 16 19 11 13 15 1 9 13 18 34 41 32
42 26 48 75 87 36 10 16 12 17 36 34 24 19 26 41 33 40 36 21 46 42 20 3 3 7 22 20 28 17 14 4 3 7 7 3 9 14 9 4 11 16 38 43 42
34 6 35 60 15 5 10 11 11 29 21 14 20 15 37 49 33 34 26 16 62 43 40 7 1 3 10 14 13 23 28 26 7 9 6 6 14 15 12 12 14 23 45 58 51
13 12 36 69 11 12 6 12 12 10 24 19 19 18 27 34 20 25 32 37 39 27 37 20 8 5 8 10 7 15 22 27 28 12 12 4 12 11 12 32 48 45 54 47 65
28 10 21 54 24 15 10 15 13 22 9 26 27 26 32 38 12 27 20 17 23 35 40 41 6 13 22 10 14 18 18 21 21 9 27 27 39 59 44 26 25 32 34 49 63
38 11 20 23 23 6 25 18 27 10 15 30 14 39 41 23 18 16 27 11 6 31 18 14 11 13 20 16 11 7 7 27 26 36 25 42 31 51 44 18 27 51 59 61 58
24 9 16 15 49 33 34 26 36 16 14 10 21 38 40 33 32 34 26 20 16 20 28 10 4 6 6 7 9 7 13 19 21 32 17 35 32 48 61 62 40 40 47 48 49
73 43 30 27 34 32 19 27 39 26 18 28 18 32 38 28 27 44 35 36 26 38 35 20 10 7 6 13 11 11 38 37 36 29 25 23 34 35 44 40 28 52 39 54 58
Wind_Direction_500mb
245 243 243 240 244 247 245 245 245 243 243 241 238 239 243 245 249 250 243 237 228 235 239 271 280 306 303 262 292 291 276 242 232 223 258 130 189 139 232 248 175 205 136 138 189
244 242 240 239 240 242 239 241 249 246 244 246 238 234 237 242 247 248 242 232 228 234 230 238 254 260 262 249 198 254 252 258 259 264 272 279 145 266 177 232 201 193 216 202 205
245 241 239 236 236 237 236 236 240 246 238 240 238 229 230 234 263 258 236 231 231 229 218 205 214 241 242 248 210 205 238 285 288 281 263 275 274 248 253 246 254 237 210 209 204
242 243 238 235 233 233 235 231 231 239 242 232 234 224 218 204 224 245 229 234 229 223 211 209 209 215 220 232 228 252 263 266 278 304 345 324 289 272 248 252 273 275 201 214 214
243 240 240 236 233 230 232 233 227 230 233 223 220 215 199 209 229 276 203 212 208 213 208 201 208 214 224 223 242 253 244 275 266 266 250 280 280 284 272 269 252 265 240 210 229
242 241 236 236 232 227 228 231 227 226 225 215 207 201 198 227 212 227 248 208 214 203 201 199 209 213 241 235 250 246 247 250 270 240 242 238 265 267 258 271 258 261 238 222 232
242 240 235 233 232 227 224 229 229 221 219 212 210 206 213 219 232 214 222 195 185 214 199 204 208 211 221 259 258 259 255 277 257 261 240 263 267 243 258 257 269 246 232 226 215
239 238 235 229 231 226 221 222 226 218 209 208 209 201 225 232 204 205 201 215 205 203 200 203 211 238 242 243 254 262 243 249 234 250 243 198 256 284 281 240 241 250 251 231 219
240 231 232 227 224 226 218 216 220 217 209 203 199 192 226 223 213 201 208 197 194 193 196 208 210 233 222 239 250 225 240 235 246 249 229 203 250 258 275 253 240 245 241 232 221
231 228 229 226 219 222 220 213 211 214 207 203 204 197 234 220 214 206 203 193 186 169 182 199 196 195 220 202 215 208 229 247 266 240 236 239 232 252 267 284 286 249 247 245 224
237 238 227 225 217 215 214 211 191 202 201 193 192 199 313 209 195 193 186 177 181 176 182 177 192 209 208 213 226 246 251 236 233 236 263 227 241 258 266 255 266 266 262 260 237
250 246 222 219 217 212 210 205 197 201 186 202 211 201 289 187 177 193 178 183 172 190 180 163 216 220 211 217 228 246 255 259 275 282 240 244 254 267 269 260 258 256 251 249 254
241 241 223 214 216 215 217 211 199 183 180 197 206 195 183 173 185 190 186 190 190 179 194 195 214 202 219 214 228 231 236 249 261 310 304 314 277 265 266 263 262 257 253 255 245
232 226 233 210 215 214 217 213 203 194 209 160 211 198 190 177 223 195 192 188 172 200 185 223 227 180 204 220 209 235 230 251 261 303 259 163 273 258 258 257 242 246 244 245 249
233 233 222 210 205 203 209 199 173 160 248 157 173 176 175 180 140 197 190 203 202 191 189 207 197 210 232 217 193 240 215 247 250 254 283 267 279 277 211 257 269 263 238 238 240
226 229 226 225 200 197 188 193 177 181 218 175 150 166 163 194 183 165 183 210 227 219 197 217 195 190 212 205 209 142 222 131 322 259 233 240 217 239 231 250 256 272 258 250 238
220 220 207 217 187 187 183 160 188 206 145 174 166 166 173 172 168 161 176 198 193 177 203 207 189 134 74 200 210 209 173 231 210 224 234 206 210 243 263 268 281 291 288 301 304
224 214 211 215 173 174 173 181 211 144 175 182 162 161 172 156 184 178 179 189 218 210 180 188 207 194 183 208 194 199 196 203 215 213 263 158 219 244 223 237 253 262 271 280 286
207 197 194 194 174 175 167 203 199 150 155 159 152 162 146 172 136 180 194 193 198 196 167 192 230 175 192 186 194 182 216 221 273 133 217 221 239 297 270 265 256 254 258 284 291
189 174 207 186 182 176 179 203 152 148 159 148 153 178 161 177 163 183 183 202 199 204 224 140 220 231 191 176 234 217 140 188 193 224 233 236 240 246 64 249 293 269 260 288 301
189 174 202 176 188 211 178 196 130 209 158 165 158 161 175 176 180 183 188 166 199 201 205 256 56 154 143 191 190 195 200 173 184 220 235 233 232 221 230 24 20 24 5 355 359
189 126 183 188 187 154 168 131 137 169 189 200 176 181 174 176 174 186 198 214 188 183 198 174 232 165 220 187 203 212 222 206 207 207 233 315 260 294 330 79 46 347 336 327 330
177 171 188 190 198 164 113 123 154 189 193 188 176 208 159 171 178 174 192 187 186 182 181 171 209 96 7 6 251 214 226 229 225 263 219 227 263 228 281 302 303 319 318 325 317
175 171 207 187 203 166 136 154 129 208 239 208 187 180 153 166 162 171 182 155 165 182 182 163 174 193 197 179 152 191 209 226 230 234 247 236 265 277 272 276 296 306 338 331 321
189 201 183 173 189 170 175 169 160 151 229 254 196 183 168 163 172 152 159 110 155 175 146 165 202 201 241 277 52 21 237 215 211 229 220 244 240 263 270 293 297 309 306 300 300
164 175 142 173 175 170 188 182 180 152 163 212 200 190 174 167 180 164 151 156 170 160 174 197 229 200 299 268 314 188 240 265 240 238 247 251 259 259 281 289 292 297 289 286 293
205 192 161 185 175 180 192 182 185 158 214 205 244 184 180 179 139 170 145 150 162 177 183 176 142 120 237 180 179 285 231 222 230 234 227 236 248 272 272 275 308 282 299 299 295
Wind_Speed_850mb
71 67 62 54 49 49 54 48 42 44 58 60 57 52 47 44 40 39 39 32 34 45 29 17 17 6 10 6 5 10 7 10 16 15 14 14 2 10 5 4 7 7 2 12 23
73 72 69 63 55 51 55 53 43 42 41 46 54 51 46 41 40 43 35 38 44 35 32 12 9 9 11 7 4 6 7 15 16 23 22 17 12 12 5 16 20 20 20 17 24
70 73 74 71 65 58 53 55 49 44 40 35 41 49 42 32 28 49 52 50 47 36 31 15 15 14 19 25 12 8 8 26 30 21 30 16 12 13 13 16 23 6 34 26 27
84 71 72 74 71 64 59 58 54 48 42 38 33 38 39 27 17 13 27 39 50 37 34 22 17 24 12 15 26 21 27 26 44 18 8 11 20 34 21 36 28 7 9 30 30
76 80 71 75 75 70 66 58 58 50 40 40 32 33 39 39 37 8 18 33 45 47 40 30 31 29 24 19 33 27 23 41 27 15 13 18 27 30 38 35 24 21 21 30 35
72 72 75 70 76 74 71 64 60 56 46 45 39 32 36 47 36 13 12 17 41 53 44 38 22 34 22 38 29 21 33 41 50 28 26 21 30 29 25 26 45 45 37 31 41
77 71 73 74 72 77 73 68 62 58 50 48 44 42 39 65 8 48 33 20 20 41 42 41 38 28 19 22 30 42 22 23 33 36 19 17 25 24 54 50 53 38 31 37 42
79 75 71 78 73 76 77 72 65 59 53 49 41 39 41 45 25 42 35 31 15 28 40 33 36 37 28 24 27 14 19 26 20 36 37 17 31 22 41 55 60 62 55 45 45
80 71 71 76 78 70 79 76 67 60 57 51 45 36 37 33 65 44 52 27 20 21 36 38 38 34 22 15 16 27 27 33 28 42 19 28 15 21 43 53 52 58 60 51 48
80 64 71 73 77 77 76 80 68 57 57 53 45 28 40 53 41 59 30 38 24 23 29 25 23 13 15 24 33 19 33 30 28 21 33 24 25 27 53 55 40 48 47 49 55
89 63 68 68 80 69 75 81 60 35 76 34 43 43 4 53 43 58 50 47 39 25 14 22 12 30 47 40 19 21 23 26 30 28 30 32 28 24 43 49 52 49 43 56 52
64 77 66 73 70 80 71 98 101 30 56 62 33 76 14 50 39 48 59 46 40 28 30 11 28 49 22 24 30 31 30 34 16 20 19 21 24 19 38 39 54 50 56 55 51
62 69 61 71 70 70 90 91 83 32 16 57 50 74 29 48 35 56 77 63 49 32 40 27 24 29 25 22 29 35 38 29 20 11 8 6 24 24 38 52 57 63 63 65 60
63 65 67 69 71 83 81 74 72 63 6 23 26 41 45 27 16 50 80 63 17 43 37 26 39 19 26 28 26 32 24 21 22 10 9 12 19 21 16 31 34 67 69 70 73
79 77 71 84 72 88 76 61 74 48 11 36 27 36 51 37 36 26 74 58 29 27 29 26 24 37 17 49 26 23 11 15 22 24 9 30 14 11 22 32 28 33 67 73 76
73 74 72 85 85 80 60 63 67 7 14 22 36 37 45 49 25 39 64 54 36 17 32 29 13 18 41 15 24 9 7 5 4 11 19 48 26 7 20 25 25 29 43 49 72
67 73 80 67 81 78 80 77 18 15 11 10 34 47 48 29 22 40 39 41 24 23 28 34 22 6 2 26 22 16 19 9 10 13 14 10 16 39 18 17 20 17 32 32 23
65 80 97 85 69 88 94 21 28 19 16 11 32 50 30 45 18 38 38 37 38 24 18 26 26 33 26 21 27 28 31 9 10 9 9 21 14 23 30 60 68 64 66 62 57
48 64 64 105 76 101 64 28 22 25 17 27 45 49 14 41 20 29 41 49 43 41 15 28 22 21 20 17 27 19 26 24 10 4 1 8 12 16 18 18 17 32 41 38 32
51 47 51 80 101 69 30 29 8 28 20 37 21 25 27 47 29 35 40 40 39 41 25 6 10 12 35 24 23 14 16 12 9 16 19 11 13 15 1 9 13 18 34 41 32
42 26 48 75 87 36 10 16 12 17 36 34 24 19 26 41 33 40 36 21 46 42 20 3 3 7 22 20 28 17 14 4 3 7 7 3 9 14 9 4 11 16 38 43 42
34 6 35 60 15 5 10 11 11 29 21 14 20 15 37 49 33 34 26 16 62 43 40 7 1 3 10 14 13 23 28 26 7 9 6 6 14 15 12 12 14 23 45 58 51
13 12 36 69 11 12 6 12 12 10 24 19 19 18 27 34 20 25 32 37 39 27 37 20 8 5 8 10 7 15 22 27 28 12 12 4 12 11 12 32 48 45 54 47 65
28 10 21 54 24 15 10 15 13 22 9 26 27 26 32 38 12 27 20 17 23 35 40 41 6 13 22 10 14 18 18 21 21 9 27 27 39 59 44 26 25 32 34 49 63
38 11 20 23 23 6 25 18 27 10 15 30 14 39 41 23 18 16 27 11 6 31 18 14 11 13 20 16 11 7 7 27 26 36 25 42 31 51 44 18 27 51 59 61 58
24 9 16 15 49 33 34 26 36 16 14 10 21 38 40 33 32 34 26 20 16 20 28 10 4 6 6 7 9 7 13 19 21 32 17 35 32 48 61 62 40 40 47 48 49
73 43 30 27 34 32 19 27 39 26 18 28 18 32 38 28 27 44 35 36 26 38 35 20 10 7 6 13 11 11 38 37 36 29 25 23 34 35 44 40 28 52 39 54 58
Wind_Direction_850mb
245 243 243 240 244 247 245 245 245 243 243 241 238 239 243 245 249 250 243 237 228 235 239 271 280 306 303 262 292 291 276 242 232 223 258 130 189 139 232 248 175 205 136 138 189
244 242 240 239 240 242 239 241 249 246 244 246 238 234 237 242 247 248 242 232 228 234 230 238 254 260 262 249 198 254 252 258 259 264 272 279 145 266 177 232 201 193 216 202 205
245 241 239 236 236 237 236 236 240 246 238 240 238 229 230 234 263 258 236 231 231 229 218 205 214 241 242 248 210 205 238 285 288 281 263 275 274 248 253 246 254 237 210 209 204
242 243 238 235 233 233 235 231 231 239 242 232 234 224 218 204 224 245 229 234 229 223 211 209 209 215 220 232 228 252 263 266 278 304 345 324 289 272 248 252 273 275 201 214 214
243 240 240 236 233 230 232 233 227 230 233 223 220 215 199 209 229 276 203 212 208 213 208 201 208 214 224 223 242 253 244 275 266 266 250 280 280 284 272 269 252 265 240 210 229
242 241 236 236 232 227 228 231 227 226 225 215 207 201 198 227 212 227 248 208 214 203 201 199 209 213 241 235 250 246 247 250 270 240 242 238 265 267 258 271 258 261 238 222 232
242 240 235 233 232 227 224 229 229 221 219 212 210 206 213 219 232 214 222 195 185 214 199 204 208 211 221 259 258 259 255 277 257 261 240 263 267 243 258 257 269 246 232 226 215
239 238 235 229 231 226 221 222 226 218 209 208 209 201 225 232 204 205 201 215 205 203 200 203 211 238 242 243 254 262 243 249 234 250 243 198 256 284 281 240 241 250 251 231 219
240 231 232 227 224 226 218 216 220 217 209 203 199 192 226 223 213 201 208 197 194 193 196 208 210 233 222 239 250 225 240 235 246 249 229 203 250 258 275 253 240 245 241 232 221
231 228 229 226 219 222 220 213 211 214 207 203 204 197 234 220 214 206 203 193 186 169 182 199 196 195 220 202 215 208 229 247 266 240 236 239 232 252 267 284 286 249 247 245 224
237 238 227 225 217 215 214 211 191 202 201 193 192 199 313 209 195 193 186 177 181 176 182 177 192 209 208 213 226 246 251 236 233 236 263 227 241 258 266 255 266 266 262 260 237
250 246 222 219 217 212 210 205 197 201 186 202 211 201 289 187 177 193 178 183 172 190 180 163 216 220 211 217 228 246 255 259 275 282 240 244 254 267 269 260 258 256 251 249 254
241 241 223 214 216 215 217 211 199 183 180 197 206 195 183 173 185 190 186 190 190 179 194 195 214 202 219 214 228 231 236 249 261 310 304 314 277 265 266 263 262 257 253 255 245
232 226 233 210 215 214 217 213 203 194 209 160 211 198 190 177 223 195 192 188 172 200 185 223 227 180 204 220 209 235 230 251 261 303 259 163 273 258 258 257 242 246 244 245 249
233 233 222 210 205 203 209 199 173 160 248 157 173 176 175 180 140 197 190 203 202 191 189 207 197 210 232 217 193 240 215 247 250 254 283 267 279 277 211 257 269 263 238 238 240
226 229 226 225 200 197 188 193 177 181 218 175 150 166 163 194 183 165 183 210 227 219 197 217 195 190 212 205 209 142 222 131 322 259 233 240 217 239 231 250 256 272 258 250 238
220 220 207 217 187 187 183 160 188 206 145 174 166 166 173 172 168 161 176 198 193 177 203 207 189 134 74 200 210 209 173 231 210 224 234 206 210 243 263 268 281 291 288 301 304
224 214 211 215 173 174 173 181 211 144 175 182 162 161 172 156 184 178 179 189 218 210 180 188 207 194 183 208 194 199 196 203 215 213 263 158 219 244 223 237 253 262 271 280 286
207 197 194 194 174 175 167 203 199 150 155 159 152 162 146 172 136 180 194 193 198 196 167 192 230 175 192 186 194 182 216 221 273 133 217 221 239 297 270 265 256 254 258 284 291
189 174 207 186 182 176 179 203 152 148 159 148 153 178 161 177 163 183 183 202 199 204 224 140 220 231 191 176 234 217 140 188 193 224 233 236 240 246 64 249 293 269 260 288 301
189 174 202 176 188 211 178 196 130 209 158 165 158 161 175 176 180 183 188 166 199 201 205 256 56 154 143 191 190 195 200 173 184 220 235 233 232 221 230 24 20 24 5 355 359
189 126 183 188 187 154 168 131 137 169 189 200 176 181 174 176 174 186 198 214 188 183 198 174 232 165 220 187 203 212 222 206 207 207 233 315 260 294 330 79 46 347 336 327 330
177 171 188 190 198 164 113 123 154 189 193 188 176 208 159 171 178 174 192 187 186 182 181 171 209 96 7 6 251 214 226 229 225 263 219 227 263 228 281 302 303 319 318 325 317
175 171 207 187 203 166 136 154 129 208 239 208 187 180 153 166 162 171 182 155 165 182 182 163 174 193 197 179 152 191 209 226 230 234 247 236 265 277 272 276 296 306 338 331 321
189 201 183 173 189 170 175 169 160 151 229 254 196 183 168 163 172 152 159 110 155 175 146 165 202 201 241 277 52 21 237 215 211 229 220 244 240 263 270 293 297 309 306 300 300
164 175 142 173 175 170 188 182 180 152 163 212 200 190 174 167 180 164 151 156 170 160 174 197 229 200 299 268 314 188 240 265 240 238 247 251 259 259 281 289 292 297 289 286 293
205 192 161 185 175 180 192 182 185 158 214 205 244 184 180 179 139 170 145 150 162 177 183 176 142 120 237 180 179 285 231 222 230 234 227 236 248 272 272 275 308 282 299 299 295